Back to catalog

STARLINK-31099

AliveCommunicationsVLEO
NORAD 58781·PAYLOAD·🇺🇸 United States

Launched Jan 14, 2024 from Vandenberg Space Force Base

Loading…

Next Passes (next 24 hours)

TLE

FreshSource: CelesTrak SupGP

Epoch: Sep 14, 2026, 15:20 UTC

1 58781C 24011S   26257.63937500  .00010814  00000+0  31964-3 0  2578
2 58781  53.1580 214.9391 0001269  90.2627 301.1808 15.34372251    11

Track STARLINK-31099 in real time with AllMySat

Download on the App Store